Weather History for Pecos, TX

Change the Weather History Date:

Sunday, September 2, 2012

  Actual Average Record
Temperature  
Mean Temperature 82 °F -  
Max Temperature 98 °F 93 °F 107 °F (1951)
Min Temperature 67 °F 65 °F 52 °F (1955)
Cooling Degree Days 18    
Growing Degree Days 32 (Base 50)    
Moisture  
Dew Point 54 °F    
Average Humidity 41    
Maximum Humidity 69    
Minimum Humidity 15    
Precipitation  
Precipitation 0.00 in - - ()
Sea Level Pressure  
Sea Level Pressure 30.00 in    
Wind  
Wind Speed 5 mph (ESE)    
Max Wind Speed 18 mph    
Max Gust Speed 24 mph    
Visibility 10 miles    
Events      
Averages and records for this station are not official NWS values.
T = Trace of Precipitation, MM = Missing Value Source: NWS Daily Summary

Daily Weather History Graph

Daily Weather History Graph

Search for Another Location

Airport:

Trip Planner

Search our weather history database for the weather conditions in past years. The results will help you decide how hot, cold, wet, or windy it might be!

Date:

Astronomy

Sep. 02, 2012 Rise Set
Actual Time 7:30 AM CDT 8:15 PM CDT
Civil Twilight 7:06 AM CDT 8:40 PM CDT
Nautical Twilight 6:37 AM CDT 9:09 PM CDT
Astronomical Twilight 6:07 AM CDT 9:39 PM CDT
Moon 9:18 PM CDT (9/2) 9:28 AM CDT (9/2)
Length of Visible Light 13h 34m
Length of Day
12h 44m
Waning Gibbous, 95% of the Moon is Illuminated
Sep 2
Waning Gibbous
Sep 8
Last Quarter
Sep 15
New
Sep 22
First Quarter
Sep 29
Full

Hourly Weather History & Observations

Time (CDT) Temp. Heat Index Dew Point Humidity Pressure Visibility Wind Dir Wind Speed Gust Speed Precip Events Conditions
12:15 AM 78.4 °F - 54.1 °F 43% 30.03 in 10.0 mi ESE 8.1 mph - N/A   Clear
12:35 AM 77.7 °F - 54.5 °F 45% 30.03 in 10.0 mi ESE 6.9 mph - N/A   Clear
12:55 AM 76.5 °F - 54.7 °F 47% 30.03 in 10.0 mi SE 5.8 mph - N/A   Clear
1:15 AM 75.2 °F - 54.9 °F 49% 30.03 in 10.0 mi ESE 6.9 mph - N/A   Clear
1:35 AM 75.2 °F - 54.9 °F 49% 30.02 in 10.0 mi ESE 6.9 mph - N/A   Clear
1:55 AM 74.1 °F - 54.9 °F 51% 30.02 in 10.0 mi ESE 6.9 mph - N/A   Clear
2:15 AM 73.6 °F - 54.9 °F 52% 30.02 in 10.0 mi East 5.8 mph - N/A   Clear
2:35 AM 72.9 °F - 54.7 °F 53% 30.02 in 10.0 mi ESE 4.6 mph - N/A   Clear
2:55 AM 72.5 °F - 55.0 °F 54% 30.02 in 10.0 mi East 3.5 mph - N/A   Clear
3:15 AM 70.9 °F - 54.9 °F 57% 30.01 in 10.0 mi East 6.9 mph - N/A   Clear
3:35 AM 70.7 °F - 54.7 °F 57% 30.01 in 10.0 mi East 5.8 mph - N/A   Clear
3:55 AM 70.2 °F - 54.9 °F 58% 30.02 in 10.0 mi East 5.8 mph - N/A   Clear
4:15 AM 69.8 °F - 55.4 °F 60% 30.01 in 10.0 mi East 5.8 mph - N/A   Clear
4:35 AM 68.9 °F - 55.4 °F 62% 30.00 in 10.0 mi East 4.6 mph - N/A   Clear
4:55 AM 69.8 °F - 55.9 °F 61% 30.00 in 10.0 mi ENE 5.8 mph - N/A   Clear
5:15 AM 69.4 °F - 56.3 °F 63% 30.00 in 10.0 mi Calm Calm - N/A   Clear
5:35 AM 70.2 °F - 56.3 °F 61% 30.00 in 10.0 mi Calm Calm - N/A   Clear
5:55 AM 69.8 °F - 56.3 °F 62% 30.00 in 10.0 mi ENE 5.8 mph - N/A   Clear
6:15 AM 68.2 °F - 56.3 °F 66% 30.01 in 10.0 mi East 4.6 mph - N/A   Clear
6:35 AM 67.5 °F - 56.5 °F 68% 30.02 in 10.0 mi Calm Calm - N/A   Clear
6:55 AM 67.8 °F - 56.7 °F 67% 30.02 in 10.0 mi Calm Calm - N/A   Clear
7:15 AM 68.0 °F - 56.7 °F 67% 30.03 in 10.0 mi Calm Calm - N/A   Clear
7:35 AM 67.6 °F - 57.0 °F 69% 30.04 in 10.0 mi Calm Calm - N/A   Clear
7:55 AM 67.8 °F - 57.2 °F 69% 30.05 in 10.0 mi Calm Calm - N/A   Clear
8:15 AM 68.4 °F - 57.9 °F 69% 30.05 in 10.0 mi Calm Calm - N/A   Clear
8:35 AM 70.3 °F - 58.1 °F 65% 30.05 in 10.0 mi Calm Calm - N/A   Clear
8:55 AM 72.3 °F - 57.4 °F 59% 30.05 in 10.0 mi Calm Calm - N/A   Clear
9:15 AM 73.8 °F - 57.6 °F 57% 30.05 in 10.0 mi Calm Calm - N/A   Clear
9:35 AM 75.2 °F - 58.3 °F 56% 30.06 in 10.0 mi Calm Calm - N/A   Clear
9:55 AM 76.6 °F - 59.0 °F 54% 30.06 in 10.0 mi East 3.5 mph - N/A   Clear
10:15 AM 78.8 °F - 59.2 °F 51% 30.06 in 10.0 mi Calm Calm - N/A   Clear
10:35 AM 80.6 °F 81.1 °F 59.2 °F 48% 30.07 in 10.0 mi ESE 3.5 mph - N/A   Clear
10:55 AM 82.6 °F 82.6 °F 59.0 °F 45% 30.07 in 10.0 mi ESE 3.5 mph - N/A   Clear
11:15 AM 84.0 °F 83.6 °F 58.5 °F 42% 30.07 in 10.0 mi ENE 3.5 mph - N/A   Clear
11:35 AM 85.1 °F 84.3 °F 57.6 °F 39% 30.06 in 10.0 mi ENE 3.5 mph - N/A   Clear
11:55 AM 85.8 °F 84.5 °F 56.3 °F 36% 30.06 in 10.0 mi Calm Calm - N/A   Clear
12:15 PM 87.4 °F 85.7 °F 55.2 °F 33% 30.05 in 10.0 mi North 4.6 mph - N/A   Clear
12:35 PM 88.7 °F 86.9 °F 54.9 °F 32% 30.04 in 10.0 mi Calm Calm - N/A   Clear
12:55 PM 90.0 °F 87.9 °F 54.5 °F 30% 30.04 in 10.0 mi Calm Calm - N/A   Clear
1:15 PM 92.3 °F 89.9 °F 54.0 °F 27% 30.03 in 10.0 mi Calm Calm - N/A   Clear
1:35 PM 92.5 °F - 52.9 °F 26% 30.02 in 10.0 mi South 3.5 mph - N/A   Clear
1:55 PM 93.2 °F - 52.3 °F 25% 30.02 in 10.0 mi East 3.5 mph - N/A   Clear
2:15 PM 94.5 °F - 52.2 °F 24% 30.00 in 10.0 mi Calm Calm - N/A   Clear
2:35 PM 95.7 °F - 50.2 °F 21% 30.00 in 10.0 mi ESE 6.9 mph - N/A   Clear
2:55 PM 96.3 °F - 49.1 °F 20% 29.99 in 10.0 mi SSE 4.6 mph - N/A   Clear
3:15 PM 96.8 °F - 49.3 °F 20% 29.98 in 10.0 mi East 5.8 mph - N/A   Clear
3:35 PM 96.3 °F - 47.7 °F 19% 29.97 in 10.0 mi SE 3.5 mph - N/A   Clear
3:55 PM 97.7 °F - 46.6 °F 17% 29.96 in 10.0 mi SE 3.5 mph - N/A   Clear
4:15 PM 97.3 °F - 46.6 °F 18% 29.95 in 10.0 mi Calm Calm - N/A   Clear
4:35 PM 97.9 °F - 45.9 °F 17% 29.94 in 10.0 mi Calm Calm - N/A   Clear
4:55 PM 98.6 °F - 44.2 °F 16% 29.94 in 10.0 mi SSE 5.8 mph - N/A   Clear
5:15 PM 97.2 °F - 43.3 °F 16% 29.93 in 10.0 mi Calm Calm - N/A   Clear
5:35 PM 98.6 °F - 43.5 °F 15% 29.93 in 10.0 mi SSW 8.1 mph - N/A   Clear
6:15 PM 97.7 °F - 44.2 °F 16% 29.92 in 10.0 mi West 6.9 mph - N/A   Clear
6:35 PM 97.0 °F - 44.1 °F 16% 29.91 in 10.0 mi SSW 3.5 mph - N/A   Clear
6:55 PM 96.8 °F - 44.4 °F 17% 29.91 in 10.0 mi Calm Calm - N/A   Clear
7:15 PM 96.4 °F - 44.6 °F 17% 29.91 in 10.0 mi Calm Calm - N/A   Clear
7:35 PM 95.9 °F - 46.0 °F 18% 29.91 in 10.0 mi East 4.6 mph - N/A   Clear
7:55 PM 93.7 °F - 47.8 °F 21% 29.91 in 10.0 mi East 6.9 mph - N/A   Clear
8:15 PM 90.5 °F - 52.3 °F 27% 29.91 in 10.0 mi East 6.9 mph - N/A   Clear
8:35 PM 89.6 °F 87.3 °F 53.4 °F 29% 29.92 in 10.0 mi East 8.1 mph - N/A   Clear
8:55 PM 88.3 °F 86.1 °F 53.6 °F 30% 29.92 in 10.0 mi East 6.9 mph - N/A   Clear
9:15 PM 86.9 °F 84.9 °F 53.8 °F 32% 29.93 in 10.0 mi ESE 8.1 mph - N/A   Clear
9:55 PM 88.3 °F 86.9 °F 56.3 °F 34% 29.95 in 10.0 mi ESE 16.1 mph 24.2 mph N/A   Clear
10:15 PM 87.1 °F 85.9 °F 57.4 °F 36% 29.95 in 10.0 mi ESE 18.4 mph 24.2 mph N/A   Clear
10:35 PM 86.4 °F 85.4 °F 58.1 °F 38% 29.95 in 10.0 mi ESE 16.1 mph - N/A   Clear
11:35 PM 84.2 °F 83.8 °F 59.0 °F 42% 29.97 in 10.0 mi SE 13.8 mph - N/A   Clear
11:55 PM 83.8 °F 83.6 °F 59.0 °F 43% 29.97 in 10.0 mi SE 13.8 mph - N/A   Clear